owner,sensor,date,latitude,longitude,vertical_datum,sea_water_temperature,qcFlag 
TCOON,ioos:station:TCOON:170:1,2017-07-01T00:30:00Z,27.2970,-97.4049,0.0,31.5,2 
TCOON,ioos:station:TCOON:170:1,2017-07-01T01:30:00Z,27.2970,-97.4049,0.0,31.0,2 
TCOON,ioos:station:TCOON:170:1,2017-07-01T02:30:00Z,27.2970,-97.4049,0.0,30.6,2 
TCOON,ioos:station:TCOON:170:1,2017-07-01T03:30:00Z,27.2970,-97.4049,0.0,30.2,2 
TCOON,ioos:station:TCOON:170:1,2017-07-01T08:30:00Z,27.2970,-97.4049,0.0,28.4,2 
TCOON,ioos:station:TCOON:170:1,2017-07-01T15:30:00Z,27.2970,-97.4049,0.0,28.5,2 
TCOON,ioos:station:TCOON:170:1,2017-07-01T16:30:00Z,27.2970,-97.4049,0.0,29.3,2 
TCOON,ioos:station:TCOON:170:1,2017-07-01T19:30:00Z,27.2970,-97.4049,0.0,31.5,2 
TCOON,ioos:station:TCOON:170:1,2017-07-01T21:30:00Z,27.2970,-97.4049,0.0,31.7,2 
TCOON,ioos:station:TCOON:170:1,2017-07-01T23:30:00Z,27.2970,-97.4049,0.0,31.7,2 
TCOON,ioos:station:TCOON:170:1,2017-07-02T01:30:00Z,27.2970,-97.4049,0.0,31.2,2 
TCOON,ioos:station:TCOON:170:1,2017-07-02T06:30:00Z,27.2970,-97.4049,0.0,29.1,2 
TCOON,ioos:station:TCOON:170:1,2017-07-02T07:30:00Z,27.2970,-97.4049,0.0,28.9,2 
TCOON,ioos:station:TCOON:170:1,2017-07-02T08:30:00Z,27.2970,-97.4049,0.0,28.8,2 
TCOON,ioos:station:TCOON:170:1,2017-07-02T10:30:00Z,27.2970,-97.4049,0.0,28.9,2 
TCOON,ioos:station:TCOON:170:1,2017-07-02T11:30:00Z,27.2970,-97.4049,0.0,28.8,2 
TCOON,ioos:station:TCOON:170:1,2017-07-02T13:30:00Z,27.2970,-97.4049,0.0,28.9,2 
TCOON,ioos:station:TCOON:170:1,2017-07-02T14:30:00Z,27.2970,-97.4049,0.0,28.8,2 
TCOON,ioos:station:TCOON:170:1,2017-07-02T16:30:00Z,27.2970,-97.4049,0.0,29.8,2 
TCOON,ioos:station:TCOON:170:1,2017-07-02T17:30:00Z,27.2970,-97.4049,0.0,30.4,2 
TCOON,ioos:station:TCOON:170:1,2017-07-02T18:30:00Z,27.2970,-97.4049,0.0,31.0,2 
TCOON,ioos:station:TCOON:170:1,2017-07-02T19:30:00Z,27.2970,-97.4049,0.0,31.6,2 
TCOON,ioos:station:TCOON:170:1,2017-07-02T21:30:00Z,27.2970,-97.4049,0.0,32.3,2 
TCOON,ioos:station:TCOON:170:1,2017-07-02T22:30:00Z,27.2970,-97.4049,0.0,32.2,2 
TCOON,ioos:station:TCOON:170:1,2017-07-03T01:30:00Z,27.2970,-97.4049,0.0,31.6,2 
TCOON,ioos:station:TCOON:170:1,2017-07-03T02:30:00Z,27.2970,-97.4049,0.0,30.9,2 
TCOON,ioos:station:TCOON:170:1,2017-07-03T04:30:00Z,27.2970,-97.4049,0.0,30.1,2 
TCOON,ioos:station:TCOON:170:1,2017-07-03T05:30:00Z,27.2970,-97.4049,0.0,29.4,2 
TCOON,ioos:station:TCOON:170:1,2017-07-03T06:30:00Z,27.2970,-97.4049,0.0,28.7,2 
TCOON,ioos:station:TCOON:170:1,2017-07-03T07:30:00Z,27.2970,-97.4049,0.0,28.6,2 
TCOON,ioos:station:TCOON:170:1,2017-07-03T11:30:00Z,27.2970,-97.4049,0.0,28.5,2 
TCOON,ioos:station:TCOON:170:1,2017-07-03T12:30:00Z,27.2970,-97.4049,0.0,28.0,2 
TCOON,ioos:station:TCOON:170:1,2017-07-03T13:30:00Z,27.2970,-97.4049,0.0,28.2,2 
TCOON,ioos:station:TCOON:170:1,2017-07-03T14:30:00Z,27.2970,-97.4049,0.0,28.0,2 
TCOON,ioos:station:TCOON:170:1,2017-07-03T16:30:00Z,27.2970,-97.4049,0.0,29.3,2 
TCOON,ioos:station:TCOON:170:1,2017-07-03T19:30:00Z,27.2970,-97.4049,0.0,31.5,2 
TCOON,ioos:station:TCOON:170:1,2017-07-03T21:30:00Z,27.2970,-97.4049,0.0,32.7,2 
TCOON,ioos:station:TCOON:170:1,2017-07-03T22:30:00Z,27.2970,-97.4049,0.0,32.5,2 
TCOON,ioos:station:TCOON:170:1,2017-07-04T00:30:00Z,27.2970,-97.4049,0.0,31.8,2 
TCOON,ioos:station:TCOON:170:1,2017-07-04T03:30:00Z,27.2970,-97.4049,0.0,30.3,2 
TCOON,ioos:station:TCOON:170:1,2017-07-04T04:30:00Z,27.2970,-97.4049,0.0,29.8,2 
TCOON,ioos:station:TCOON:170:1,2017-07-04T05:30:00Z,27.2970,-97.4049,0.0,29.4,2 
TCOON,ioos:station:TCOON:170:1,2017-07-04T07:30:00Z,27.2970,-97.4049,0.0,28.8,2 
TCOON,ioos:station:TCOON:170:1,2017-07-04T08:30:00Z,27.2970,-97.4049,0.0,28.7,2 
TCOON,ioos:station:TCOON:170:1,2017-07-04T11:30:00Z,27.2970,-97.4049,0.0,28.1,2 
TCOON,ioos:station:TCOON:170:1,2017-07-04T12:30:00Z,27.2970,-97.4049,0.0,28.2,2 
TCOON,ioos:station:TCOON:170:1,2017-07-04T13:30:00Z,27.2970,-97.4049,0.0,28.5,2 
TCOON,ioos:station:TCOON:170:1,2017-07-04T15:30:00Z,27.2970,-97.4049,0.0,29.1,2 
TCOON,ioos:station:TCOON:170:1,2017-07-04T17:30:00Z,27.2970,-97.4049,0.0,30.3,2 
TCOON,ioos:station:TCOON:170:1,2017-07-04T18:30:00Z,27.2970,-97.4049,0.0,30.9,2 
TCOON,ioos:station:TCOON:170:1,2017-07-04T19:30:00Z,27.2970,-97.4049,0.0,31.7,2 
TCOON,ioos:station:TCOON:170:1,2017-07-04T23:30:00Z,27.2970,-97.4049,0.0,32.8,2 
TCOON,ioos:station:TCOON:170:1,2017-07-05T00:30:00Z,27.2970,-97.4049,0.0,32.2,2 
TCOON,ioos:station:TCOON:170:1,2017-07-05T01:30:00Z,27.2970,-97.4049,0.0,31.7,2 
TCOON,ioos:station:TCOON:170:1,2017-07-05T04:30:00Z,27.2970,-97.4049,0.0,29.9,2 
TCOON,ioos:station:TCOON:170:1,2017-07-05T05:30:00Z,27.2970,-97.4049,0.0,29.4,2 
TCOON,ioos:station:TCOON:170:1,2017-07-05T08:30:00Z,27.2970,-97.4049,0.0,28.7,2 
TCOON,ioos:station:TCOON:170:1,2017-07-05T09:30:00Z,27.2970,-97.4049,0.0,28.7,2 
TCOON,ioos:station:TCOON:170:1,2017-07-05T10:30:00Z,27.2970,-97.4049,0.0,28.6,2 
TCOON,ioos:station:TCOON:170:1,2017-07-05T11:30:00Z,27.2970,-97.4049,0.0,28.6,2 
TCOON,ioos:station:TCOON:170:1,2017-07-05T13:30:00Z,27.2970,-97.4049,0.0,27.7,2 
TCOON,ioos:station:TCOON:170:1,2017-07-05T14:30:00Z,27.2970,-97.4049,0.0,27.8,2 
TCOON,ioos:station:TCOON:170:1,2017-07-05T15:30:00Z,27.2970,-97.4049,0.0,29.2,2 
TCOON,ioos:station:TCOON:170:1,2017-07-05T16:30:00Z,27.2970,-97.4049,0.0,29.2,2 
TCOON,ioos:station:TCOON:170:1,2017-07-05T17:30:00Z,27.2970,-97.4049,0.0,30.0,2 
TCOON,ioos:station:TCOON:170:1,2017-07-05T21:30:00Z,27.2970,-97.4049,0.0,32.1,2 
TCOON,ioos:station:TCOON:170:1,2017-07-05T23:30:00Z,27.2970,-97.4049,0.0,31.6,2 
TCOON,ioos:station:TCOON:170:1,2017-07-06T00:30:00Z,27.2970,-97.4049,0.0,31.8,2 
TCOON,ioos:station:TCOON:170:1,2017-07-06T01:30:00Z,27.2970,-97.4049,0.0,31.5,2 
TCOON,ioos:station:TCOON:170:1,2017-07-06T02:30:00Z,27.2970,-97.4049,0.0,31.0,2 
TCOON,ioos:station:TCOON:170:1,2017-07-06T04:30:00Z,27.2970,-97.4049,0.0,30.6,2 
TCOON,ioos:station:TCOON:170:1,2017-07-06T06:30:00Z,27.2970,-97.4049,0.0,29.5,2 
TCOON,ioos:station:TCOON:170:1,2017-07-06T08:30:00Z,27.2970,-97.4049,0.0,29.3,2 
TCOON,ioos:station:TCOON:170:1,2017-07-06T09:30:00Z,27.2970,-97.4049,0.0,29.2,2 
TCOON,ioos:station:TCOON:170:1,2017-07-06T10:30:00Z,27.2970,-97.4049,0.0,29.1,2 
TCOON,ioos:station:TCOON:170:1,2017-07-06T11:30:00Z,27.2970,-97.4049,0.0,29.0,2 
TCOON,ioos:station:TCOON:170:1,2017-07-06T15:30:00Z,27.2970,-97.4049,0.0,29.7,2 
TCOON,ioos:station:TCOON:170:1,2017-07-06T16:30:00Z,27.2970,-97.4049,0.0,30.3,2 
TCOON,ioos:station:TCOON:170:1,2017-07-06T17:30:00Z,27.2970,-97.4049,0.0,30.8,2 
TCOON,ioos:station:TCOON:170:1,2017-07-06T18:30:00Z,27.2970,-97.4049,0.0,31.5,2 
TCOON,ioos:station:TCOON:170:1,2017-07-06T20:30:00Z,27.2970,-97.4049,0.0,32.6,2 
TCOON,ioos:station:TCOON:170:1,2017-07-06T22:30:00Z,27.2970,-97.4049,0.0,32.8,2 
TCOON,ioos:station:TCOON:170:1,2017-07-07T00:30:00Z,27.2970,-97.4049,0.0,31.9,2 
TCOON,ioos:station:TCOON:170:1,2017-07-07T01:30:00Z,27.2970,-97.4049,0.0,31.6,2 
TCOON,ioos:station:TCOON:170:1,2017-07-07T02:30:00Z,27.2970,-97.4049,0.0,31.1,2 
TCOON,ioos:station:TCOON:170:1,2017-07-07T03:30:00Z,27.2970,-97.4049,0.0,31.3,2 
TCOON,ioos:station:TCOON:170:1,2017-07-07T04:30:00Z,27.2970,-97.4049,0.0,30.9,2 
TCOON,ioos:station:TCOON:170:1,2017-07-07T05:30:00Z,27.2970,-97.4049,0.0,30.6,2 
TCOON,ioos:station:TCOON:170:1,2017-07-07T06:30:00Z,27.2970,-97.4049,0.0,30.3,2 
TCOON,ioos:station:TCOON:170:1,2017-07-07T07:30:00Z,27.2970,-97.4049,0.0,30.1,2 
TCOON,ioos:station:TCOON:170:1,2017-07-07T08:30:00Z,27.2970,-97.4049,0.0,29.8,2 
TCOON,ioos:station:TCOON:170:1,2017-07-07T09:30:00Z,27.2970,-97.4049,0.0,29.7,2 
TCOON,ioos:station:TCOON:170:1,2017-07-07T13:30:00Z,27.2970,-97.4049,0.0,30.0,2 
TCOON,ioos:station:TCOON:170:1,2017-07-07T14:30:00Z,27.2970,-97.4049,0.0,30.2,2 
TCOON,ioos:station:TCOON:170:1,2017-07-07T15:30:00Z,27.2970,-97.4049,0.0,30.8,2 
TCOON,ioos:station:TCOON:170:1,2017-07-07T16:30:00Z,27.2970,-97.4049,0.0,31.1,2 
TCOON,ioos:station:TCOON:170:1,2017-07-07T17:42:00Z,27.2970,-97.4049,0.0,31.6,2 
TCOON,ioos:station:TCOON:170:1,2017-07-07T18:30:00Z,27.2970,-97.4049,0.0,31.8,2 
TCOON,ioos:station:TCOON:170:1,2017-07-07T19:30:00Z,27.2970,-97.4049,0.0,32.4,2 
TCOON,ioos:station:TCOON:170:1,2017-07-07T20:30:00Z,27.2970,-97.4049,0.0,32.6,2 
TCOON,ioos:station:TCOON:170:1,2017-07-07T21:30:00Z,27.2970,-97.4049,0.0,32.5,2 
TCOON,ioos:station:TCOON:170:1,2017-07-07T22:30:00Z,27.2970,-97.4049,0.0,32.2,2 
TCOON,ioos:station:TCOON:170:1,2017-07-07T23:30:00Z,27.2970,-97.4049,0.0,32.0,2 
TCOON,ioos:station:TCOON:170:1,2017-07-08T00:30:00Z,27.2970,-97.4049,0.0,31.6,2 
TCOON,ioos:station:TCOON:170:1,2017-07-08T01:30:00Z,27.2970,-97.4049,0.0,31.5,2 
TCOON,ioos:station:TCOON:170:1,2017-07-08T06:30:00Z,27.2970,-97.4049,0.0,30.2,2 
TCOON,ioos:station:TCOON:170:1,2017-07-08T07:30:00Z,27.2970,-97.4049,0.0,30.1,2 
TCOON,ioos:station:TCOON:170:1,2017-07-08T13:30:00Z,27.2970,-97.4049,0.0,29.2,2 
TCOON,ioos:station:TCOON:170:1,2017-07-08T15:30:00Z,27.2970,-97.4049,0.0,29.8,2 
TCOON,ioos:station:TCOON:170:1,2017-07-08T16:30:00Z,27.2970,-97.4049,0.0,30.5,2 
TCOON,ioos:station:TCOON:170:1,2017-07-08T17:30:00Z,27.2970,-97.4049,0.0,31.0,2 
TCOON,ioos:station:TCOON:170:1,2017-07-08T18:30:00Z,27.2970,-97.4049,0.0,31.9,2 
TCOON,ioos:station:TCOON:170:1,2017-07-08T19:30:00Z,27.2970,-97.4049,0.0,32.5,2 
TCOON,ioos:station:TCOON:170:1,2017-07-08T20:30:00Z,27.2970,-97.4049,0.0,32.9,2 
TCOON,ioos:station:TCOON:170:1,2017-07-08T21:30:00Z,27.2970,-97.4049,0.0,32.7,2 
TCOON,ioos:station:TCOON:170:1,2017-07-08T22:30:00Z,27.2970,-97.4049,0.0,32.1,2 
TCOON,ioos:station:TCOON:170:1,2017-07-08T23:42:00Z,27.2970,-97.4049,0.0,31.7,2 
TCOON,ioos:station:TCOON:170:1,2017-07-09T00:30:00Z,27.2970,-97.4049,0.0,31.4,2 
TCOON,ioos:station:TCOON:170:1,2017-07-09T01:30:00Z,27.2970,-97.4049,0.0,31.3,2 
TCOON,ioos:station:TCOON:170:1,2017-07-09T02:30:00Z,27.2970,-97.4049,0.0,31.0,2 
TCOON,ioos:station:TCOON:170:1,2017-07-09T03:30:00Z,27.2970,-97.4049,0.0,30.7,2 
TCOON,ioos:station:TCOON:170:1,2017-07-09T04:30:00Z,27.2970,-97.4049,0.0,30.4,2 
TCOON,ioos:station:TCOON:170:1,2017-07-09T07:30:00Z,27.2970,-97.4049,0.0,29.9,2 
TCOON,ioos:station:TCOON:170:1,2017-07-09T09:30:00Z,27.2970,-97.4049,0.0,29.6,2 
TCOON,ioos:station:TCOON:170:1,2017-07-09T10:30:00Z,27.2970,-97.4049,0.0,29.5,2 
TCOON,ioos:station:TCOON:170:1,2017-07-09T14:30:00Z,27.2970,-97.4049,0.0,29.3,2 
TCOON,ioos:station:TCOON:170:1,2017-07-09T17:42:00Z,27.2970,-97.4049,0.0,31.1,2 
TCOON,ioos:station:TCOON:170:1,2017-07-09T18:42:00Z,27.2970,-97.4049,0.0,31.8,2 
TCOON,ioos:station:TCOON:170:1,2017-07-09T19:42:00Z,27.2970,-97.4049,0.0,32.2,2 
TCOON,ioos:station:TCOON:170:1,2017-07-09T21:42:00Z,27.2970,-97.4049,0.0,32.3,2 
TCOON,ioos:station:TCOON:170:1,2017-07-10T01:42:00Z,27.2970,-97.4049,0.0,31.0,2 
TCOON,ioos:station:TCOON:170:1,2017-07-10T02:42:00Z,27.2970,-97.4049,0.0,30.6,2 
TCOON,ioos:station:TCOON:170:1,2017-07-10T03:42:00Z,27.2970,-97.4049,0.0,30.2,2 
TCOON,ioos:station:TCOON:170:1,2017-07-10T04:42:00Z,27.2970,-97.4049,0.0,30.0,2 
TCOON,ioos:station:TCOON:170:1,2017-07-10T14:30:00Z,27.2970,-97.4049,0.0,29.2,2 
TCOON,ioos:station:TCOON:170:1,2017-07-10T15:30:00Z,27.2970,-97.4049,0.0,29.7,2 
TCOON,ioos:station:TCOON:170:1,2017-07-10T16:30:00Z,27.2970,-97.4049,0.0,30.3,2 
TCOON,ioos:station:TCOON:170:1,2017-07-10T17:30:00Z,27.2970,-97.4049,0.0,30.8,2 
TCOON,ioos:station:TCOON:170:1,2017-07-10T18:30:00Z,27.2970,-97.4049,0.0,31.4,2 
TCOON,ioos:station:TCOON:170:1,2017-07-10T19:30:00Z,27.2970,-97.4049,0.0,31.9,2 
TCOON,ioos:station:TCOON:170:1,2017-07-10T20:30:00Z,27.2970,-97.4049,0.0,32.2,2 
TCOON,ioos:station:TCOON:170:1,2017-07-10T21:30:00Z,27.2970,-97.4049,0.0,32.0,2 
TCOON,ioos:station:TCOON:170:1,2017-07-10T23:30:00Z,27.2970,-97.4049,0.0,31.6,2 
TCOON,ioos:station:TCOON:170:1,2017-07-11T00:30:00Z,27.2970,-97.4049,0.0,31.5,2 
TCOON,ioos:station:TCOON:170:1,2017-07-11T01:30:00Z,27.2970,-97.4049,0.0,30.9,2 
TCOON,ioos:station:TCOON:170:1,2017-07-11T02:30:00Z,27.2970,-97.4049,0.0,30.8,2 
TCOON,ioos:station:TCOON:170:1,2017-07-11T04:30:00Z,27.2970,-97.4049,0.0,30.2,2 
TCOON,ioos:station:TCOON:170:1,2017-07-11T05:30:00Z,27.2970,-97.4049,0.0,30.1,2 
TCOON,ioos:station:TCOON:170:1,2017-07-11T06:30:00Z,27.2970,-97.4049,0.0,29.8,2 
TCOON,ioos:station:TCOON:170:1,2017-07-11T07:30:00Z,27.2970,-97.4049,0.0,29.6,2 
TCOON,ioos:station:TCOON:170:1,2017-07-11T08:30:00Z,27.2970,-97.4049,0.0,29.2,2 
TCOON,ioos:station:TCOON:170:1,2017-07-11T09:30:00Z,27.2970,-97.4049,0.0,29.2,2 
TCOON,ioos:station:TCOON:170:1,2017-07-11T11:30:00Z,27.2970,-97.4049,0.0,29.1,2 
TCOON,ioos:station:TCOON:170:1,2017-07-11T13:30:00Z,27.2970,-97.4049,0.0,29.0,2 
TCOON,ioos:station:TCOON:170:1,2017-07-11T15:30:00Z,27.2970,-97.4049,0.0,29.5,2 
TCOON,ioos:station:TCOON:170:1,2017-07-11T16:30:00Z,27.2970,-97.4049,0.0,29.9,2 
TCOON,ioos:station:TCOON:170:1,2017-07-11T17:30:00Z,27.2970,-97.4049,0.0,30.5,2 
TCOON,ioos:station:TCOON:170:1,2017-07-11T18:30:00Z,27.2970,-97.4049,0.0,31.2,2 
TCOON,ioos:station:TCOON:170:1,2017-07-11T21:30:00Z,27.2970,-97.4049,0.0,31.9,2 
TCOON,ioos:station:TCOON:170:1,2017-07-11T23:30:00Z,27.2970,-97.4049,0.0,31.5,2 
TCOON,ioos:station:TCOON:170:1,2017-07-12T00:30:00Z,27.2970,-97.4049,0.0,31.5,2 
TCOON,ioos:station:TCOON:170:1,2017-07-12T01:30:00Z,27.2970,-97.4049,0.0,30.5,2 
TCOON,ioos:station:TCOON:170:1,2017-07-12T02:30:00Z,27.2970,-97.4049,0.0,30.1,2 
TCOON,ioos:station:TCOON:170:1,2017-07-12T03:30:00Z,27.2970,-97.4049,0.0,29.9,2 
TCOON,ioos:station:TCOON:170:1,2017-07-12T04:30:00Z,27.2970,-97.4049,0.0,29.8,2 
TCOON,ioos:station:TCOON:170:1,2017-07-12T05:30:00Z,27.2970,-97.4049,0.0,29.5,2 
TCOON,ioos:station:TCOON:170:1,2017-07-12T06:30:00Z,27.2970,-97.4049,0.0,29.5,2 
TCOON,ioos:station:TCOON:170:1,2017-07-12T07:30:00Z,27.2970,-97.4049,0.0,29.3,2 
TCOON,ioos:station:TCOON:170:1,2017-07-12T08:30:00Z,27.2970,-97.4049,0.0,29.1,2 
TCOON,ioos:station:TCOON:170:1,2017-07-12T10:30:00Z,27.2970,-97.4049,0.0,28.8,2 
TCOON,ioos:station:TCOON:170:1,2017-07-12T13:30:00Z,27.2970,-97.4049,0.0,28.9,2 
TCOON,ioos:station:TCOON:170:1,2017-07-12T14:30:00Z,27.2970,-97.4049,0.0,28.7,2 
TCOON,ioos:station:TCOON:170:1,2017-07-12T15:30:00Z,27.2970,-97.4049,0.0,29.7,2 
TCOON,ioos:station:TCOON:170:1,2017-07-12T17:30:00Z,27.2970,-97.4049,0.0,29.1,2 
TCOON,ioos:station:TCOON:170:1,2017-07-12T18:30:00Z,27.2970,-97.4049,0.0,29.3,2 
TCOON,ioos:station:TCOON:170:1,2017-07-12T19:30:00Z,27.2970,-97.4049,0.0,29.8,2 
TCOON,ioos:station:TCOON:170:1,2017-07-12T20:30:00Z,27.2970,-97.4049,0.0,30.3,2 
TCOON,ioos:station:TCOON:170:1,2017-07-12T22:30:00Z,27.2970,-97.4049,0.0,30.4,2 
TCOON,ioos:station:TCOON:170:1,2017-07-13T01:30:00Z,27.2970,-97.4049,0.0,30.0,2 
TCOON,ioos:station:TCOON:170:1,2017-07-13T02:30:00Z,27.2970,-97.4049,0.0,29.6,2 
TCOON,ioos:station:TCOON:170:1,2017-07-13T03:30:00Z,27.2970,-97.4049,0.0,29.4,2 
TCOON,ioos:station:TCOON:170:1,2017-07-13T04:30:00Z,27.2970,-97.4049,0.0,29.3,2 
TCOON,ioos:station:TCOON:170:1,2017-07-13T05:30:00Z,27.2970,-97.4049,0.0,29.2,2 
TCOON,ioos:station:TCOON:170:1,2017-07-13T06:30:00Z,27.2970,-97.4049,0.0,29.2,2 
TCOON,ioos:station:TCOON:170:1,2017-07-13T09:30:00Z,27.2970,-97.4049,0.0,28.7,2 
TCOON,ioos:station:TCOON:170:1,2017-07-13T11:30:00Z,27.2970,-97.4049,0.0,28.5,2 
TCOON,ioos:station:TCOON:170:1,2017-07-13T15:30:00Z,27.2970,-97.4049,0.0,29.3,2 
TCOON,ioos:station:TCOON:170:1,2017-07-13T17:30:00Z,27.2970,-97.4049,0.0,30.2,2 
TCOON,ioos:station:TCOON:170:1,2017-07-13T18:30:00Z,27.2970,-97.4049,0.0,29.9,2 
TCOON,ioos:station:TCOON:170:1,2017-07-13T19:30:00Z,27.2970,-97.4049,0.0,29.6,2 
TCOON,ioos:station:TCOON:170:1,2017-07-13T20:30:00Z,27.2970,-97.4049,0.0,29.5,2 
TCOON,ioos:station:TCOON:170:1,2017-07-13T21:30:00Z,27.2970,-97.4049,0.0,30.0,2 
TCOON,ioos:station:TCOON:170:1,2017-07-13T22:30:00Z,27.2970,-97.4049,0.0,30.5,2 
TCOON,ioos:station:TCOON:170:1,2017-07-13T23:30:00Z,27.2970,-97.4049,0.0,30.1,2 
TCOON,ioos:station:TCOON:170:1,2017-07-14T00:30:00Z,27.2970,-97.4049,0.0,29.9,2 
TCOON,ioos:station:TCOON:170:1,2017-07-14T01:30:00Z,27.2970,-97.4049,0.0,29.8,2 
TCOON,ioos:station:TCOON:170:1,2017-07-14T02:30:00Z,27.2970,-97.4049,0.0,29.8,2 
TCOON,ioos:station:TCOON:170:1,2017-07-14T03:30:00Z,27.2970,-97.4049,0.0,29.7,2 
TCOON,ioos:station:TCOON:170:1,2017-07-14T04:30:00Z,27.2970,-97.4049,0.0,29.6,2 
TCOON,ioos:station:TCOON:170:1,2017-07-14T05:30:00Z,27.2970,-97.4049,0.0,29.5,2 
TCOON,ioos:station:TCOON:170:1,2017-07-14T07:30:00Z,27.2970,-97.4049,0.0,29.1,2 
TCOON,ioos:station:TCOON:170:1,2017-07-14T08:30:00Z,27.2970,-97.4049,0.0,28.9,2 
TCOON,ioos:station:TCOON:170:1,2017-07-14T09:30:00Z,27.2970,-97.4049,0.0,28.9,2 
TCOON,ioos:station:TCOON:170:1,2017-07-14T10:30:00Z,27.2970,-97.4049,0.0,28.9,2 
TCOON,ioos:station:TCOON:170:1,2017-07-14T13:30:00Z,27.2970,-97.4049,0.0,29.1,2 
TCOON,ioos:station:TCOON:170:1,2017-07-14T14:30:00Z,27.2970,-97.4049,0.0,29.3,2 
TCOON,ioos:station:TCOON:170:1,2017-07-14T15:30:00Z,27.2970,-97.4049,0.0,29.9,2 
TCOON,ioos:station:TCOON:170:1,2017-07-14T16:30:00Z,27.2970,-97.4049,0.0,30.5,2 
TCOON,ioos:station:TCOON:170:1,2017-07-14T17:30:00Z,27.2970,-97.4049,0.0,31.0,2 
TCOON,ioos:station:TCOON:170:1,2017-07-14T18:30:00Z,27.2970,-97.4049,0.0,31.7,2 
TCOON,ioos:station:TCOON:170:1,2017-07-14T19:30:00Z,27.2970,-97.4049,0.0,32.2,2 
TCOON,ioos:station:TCOON:170:1,2017-07-14T21:30:00Z,27.2970,-97.4049,0.0,32.9,2 
TCOON,ioos:station:TCOON:170:1,2017-07-14T22:30:00Z,27.2970,-97.4049,0.0,32.3,2 
TCOON,ioos:station:TCOON:170:1,2017-07-14T23:30:00Z,27.2970,-97.4049,0.0,32.3,2 
TCOON,ioos:station:TCOON:170:1,2017-07-15T00:30:00Z,27.2970,-97.4049,0.0,31.8,2 
TCOON,ioos:station:TCOON:170:1,2017-07-15T01:30:00Z,27.2970,-97.4049,0.0,31.3,2 
TCOON,ioos:station:TCOON:170:1,2017-07-15T02:30:00Z,27.2970,-97.4049,0.0,30.7,2 
TCOON,ioos:station:TCOON:170:1,2017-07-15T03:30:00Z,27.2970,-97.4049,0.0,30.5,2 
TCOON,ioos:station:TCOON:170:1,2017-07-15T07:30:00Z,27.2970,-97.4049,0.0,29.8,2 
TCOON,ioos:station:TCOON:170:1,2017-07-15T09:30:00Z,27.2970,-97.4049,0.0,29.6,2 
TCOON,ioos:station:TCOON:170:1,2017-07-15T10:30:00Z,27.2970,-97.4049,0.0,29.5,2 
TCOON,ioos:station:TCOON:170:1,2017-07-15T11:30:00Z,27.2970,-97.4049,0.0,29.1,2 
TCOON,ioos:station:TCOON:170:1,2017-07-15T12:30:00Z,27.2970,-97.4049,0.0,29.0,2 
TCOON,ioos:station:TCOON:170:1,2017-07-15T14:30:00Z,27.2970,-97.4049,0.0,29.7,2 
TCOON,ioos:station:TCOON:170:1,2017-07-15T15:30:00Z,27.2970,-97.4049,0.0,30.0,2 
TCOON,ioos:station:TCOON:170:1,2017-07-15T16:30:00Z,27.2970,-97.4049,0.0,30.8,2 
TCOON,ioos:station:TCOON:170:1,2017-07-15T17:30:00Z,27.2970,-97.4049,0.0,31.6,2 
TCOON,ioos:station:TCOON:170:1,2017-07-15T18:30:00Z,27.2970,-97.4049,0.0,32.4,2 
TCOON,ioos:station:TCOON:170:1,2017-07-15T19:30:00Z,27.2970,-97.4049,0.0,32.9,2 
TCOON,ioos:station:TCOON:170:1,2017-07-15T20:30:00Z,27.2970,-97.4049,0.0,33.4,2 
TCOON,ioos:station:TCOON:170:1,2017-07-15T21:30:00Z,27.2970,-97.4049,0.0,33.6,2 
TCOON,ioos:station:TCOON:170:1,2017-07-15T22:30:00Z,27.2970,-97.4049,0.0,33.4,2 
TCOON,ioos:station:TCOON:170:1,2017-07-15T23:30:00Z,27.2970,-97.4049,0.0,32.9,2 
TCOON,ioos:station:TCOON:170:1,2017-07-16T00:30:00Z,27.2970,-97.4049,0.0,32.3,2 
TCOON,ioos:station:TCOON:170:1,2017-07-16T01:30:00Z,27.2970,-97.4049,0.0,31.9,2 
TCOON,ioos:station:TCOON:170:1,2017-07-16T02:30:00Z,27.2970,-97.4049,0.0,31.3,2 
TCOON,ioos:station:TCOON:170:1,2017-07-16T08:30:00Z,27.2970,-97.4049,0.0,30.1,2 
TCOON,ioos:station:TCOON:170:1,2017-07-16T09:30:00Z,27.2970,-97.4049,0.0,30.2,2 
TCOON,ioos:station:TCOON:170:1,2017-07-16T10:30:00Z,27.2970,-97.4049,0.0,30.1,2 
TCOON,ioos:station:TCOON:170:1,2017-07-16T12:30:00Z,27.2970,-97.4049,0.0,29.6,2 
TCOON,ioos:station:TCOON:170:1,2017-07-16T13:30:00Z,27.2970,-97.4049,0.0,29.5,2 
TCOON,ioos:station:TCOON:170:1,2017-07-16T14:30:00Z,27.2970,-97.4049,0.0,29.6,2 
TCOON,ioos:station:TCOON:170:1,2017-07-16T15:30:00Z,27.2970,-97.4049,0.0,29.6,2 
TCOON,ioos:station:TCOON:170:1,2017-07-16T16:30:00Z,27.2970,-97.4049,0.0,29.6,2 
TCOON,ioos:station:TCOON:170:1,2017-07-16T17:30:00Z,27.2970,-97.4049,0.0,29.6,2 
TCOON,ioos:station:TCOON:170:1,2017-07-16T18:30:00Z,27.2970,-97.4049,0.0,29.5,2 
TCOON,ioos:station:TCOON:170:1,2017-07-16T19:30:00Z,27.2970,-97.4049,0.0,29.7,2 
TCOON,ioos:station:TCOON:170:1,2017-07-16T20:30:00Z,27.2970,-97.4049,0.0,30.2,2 
TCOON,ioos:station:TCOON:170:1,2017-07-16T21:30:00Z,27.2970,-97.4049,0.0,30.9,2 
TCOON,ioos:station:TCOON:170:1,2017-07-16T22:30:00Z,27.2970,-97.4049,0.0,31.2,2 
TCOON,ioos:station:TCOON:170:1,2017-07-16T23:30:00Z,27.2970,-97.4049,0.0,31.4,2 
TCOON,ioos:station:TCOON:170:1,2017-07-17T01:30:00Z,27.2970,-97.4049,0.0,30.6,2 
TCOON,ioos:station:TCOON:170:1,2017-07-17T04:30:00Z,27.2970,-97.4049,0.0,29.6,2 
TCOON,ioos:station:TCOON:170:1,2017-07-17T05:30:00Z,27.2970,-97.4049,0.0,29.7,2 
TCOON,ioos:station:TCOON:170:1,2017-07-17T06:30:00Z,27.2970,-97.4049,0.0,29.5,2 
TCOON,ioos:station:TCOON:170:1,2017-07-17T07:30:00Z,27.2970,-97.4049,0.0,29.4,2 
TCOON,ioos:station:TCOON:170:1,2017-07-17T08:30:00Z,27.2970,-97.4049,0.0,29.0,2 
TCOON,ioos:station:TCOON:170:1,2017-07-17T09:30:00Z,27.2970,-97.4049,0.0,29.0,2 
TCOON,ioos:station:TCOON:170:1,2017-07-17T11:30:00Z,27.2970,-97.4049,0.0,29.0,2 
TCOON,ioos:station:TCOON:170:1,2017-07-17T17:30:00Z,27.2970,-97.4049,0.0,29.0,2 
TCOON,ioos:station:TCOON:170:1,2017-07-17T18:30:00Z,27.2970,-97.4049,0.0,29.9,2 
TCOON,ioos:station:TCOON:170:1,2017-07-17T19:30:00Z,27.2970,-97.4049,0.0,30.6,2 
TCOON,ioos:station:TCOON:170:1,2017-07-17T20:30:00Z,27.2970,-97.4049,0.0,31.3,2 
TCOON,ioos:station:TCOON:170:1,2017-07-17T21:30:00Z,27.2970,-97.4049,0.0,31.8,2 
TCOON,ioos:station:TCOON:170:1,2017-07-17T22:30:00Z,27.2970,-97.4049,0.0,31.6,2 
TCOON,ioos:station:TCOON:170:1,2017-07-17T23:30:00Z,27.2970,-97.4049,0.0,31.3,2 
TCOON,ioos:station:TCOON:170:1,2017-07-18T00:30:00Z,27.2970,-97.4049,0.0,31.0,2 
TCOON,ioos:station:TCOON:170:1,2017-07-18T01:30:00Z,27.2970,-97.4049,0.0,30.6,2 
TCOON,ioos:station:TCOON:170:1,2017-07-18T02:30:00Z,27.2970,-97.4049,0.0,30.4,2 
TCOON,ioos:station:TCOON:170:1,2017-07-18T03:30:00Z,27.2970,-97.4049,0.0,30.4,2 
TCOON,ioos:station:TCOON:170:1,2017-07-18T04:30:00Z,27.2970,-97.4049,0.0,30.2,2 
TCOON,ioos:station:TCOON:170:1,2017-07-18T05:30:00Z,27.2970,-97.4049,0.0,29.9,2 
TCOON,ioos:station:TCOON:170:1,2017-07-18T06:30:00Z,27.2970,-97.4049,0.0,29.6,2 
TCOON,ioos:station:TCOON:170:1,2017-07-18T07:30:00Z,27.2970,-97.4049,0.0,29.1,2 
TCOON,ioos:station:TCOON:170:1,2017-07-18T11:30:00Z,27.2970,-97.4049,0.0,28.2,2 
TCOON,ioos:station:TCOON:170:1,2017-07-18T12:30:00Z,27.2970,-97.4049,0.0,28.4,2 
TCOON,ioos:station:TCOON:170:1,2017-07-18T15:30:00Z,27.2970,-97.4049,0.0,29.0,2 
TCOON,ioos:station:TCOON:170:1,2017-07-18T16:30:00Z,27.2970,-97.4049,0.0,29.3,2 
TCOON,ioos:station:TCOON:170:1,2017-07-18T17:30:00Z,27.2970,-97.4049,0.0,30.2,2 
TCOON,ioos:station:TCOON:170:1,2017-07-18T20:30:00Z,27.2970,-97.4049,0.0,32.1,2 
TCOON,ioos:station:TCOON:170:1,2017-07-18T21:30:00Z,27.2970,-97.4049,0.0,31.6,2 
TCOON,ioos:station:TCOON:170:1,2017-07-18T22:30:00Z,27.2970,-97.4049,0.0,31.8,2 
TCOON,ioos:station:TCOON:170:1,2017-07-18T23:30:00Z,27.2970,-97.4049,0.0,31.7,2 
TCOON,ioos:station:TCOON:170:1,2017-07-19T00:30:00Z,27.2970,-97.4049,0.0,31.3,2 
TCOON,ioos:station:TCOON:170:1,2017-07-19T01:30:00Z,27.2970,-97.4049,0.0,31.0,2 
TCOON,ioos:station:TCOON:170:1,2017-07-19T02:30:00Z,27.2970,-97.4049,0.0,30.9,2 
TCOON,ioos:station:TCOON:170:1,2017-07-19T03:30:00Z,27.2970,-97.4049,0.0,30.7,2 
TCOON,ioos:station:TCOON:170:1,2017-07-19T05:30:00Z,27.2970,-97.4049,0.0,30.2,2 
TCOON,ioos:station:TCOON:170:1,2017-07-19T06:30:00Z,27.2970,-97.4049,0.0,29.9,2 
TCOON,ioos:station:TCOON:170:1,2017-07-19T07:30:00Z,27.2970,-97.4049,0.0,29.8,2 
TCOON,ioos:station:TCOON:170:1,2017-07-19T09:30:00Z,27.2970,-97.4049,0.0,29.4,2 
TCOON,ioos:station:TCOON:170:1,2017-07-19T10:30:00Z,27.2970,-97.4049,0.0,29.4,2 
TCOON,ioos:station:TCOON:170:1,2017-07-19T14:30:00Z,27.2970,-97.4049,0.0,29.2,2 
TCOON,ioos:station:TCOON:170:1,2017-07-19T15:30:00Z,27.2970,-97.4049,0.0,29.7,2 
TCOON,ioos:station:TCOON:170:1,2017-07-19T16:30:00Z,27.2970,-97.4049,0.0,30.3,2 